Location: Barcelona
(41.3829°N, 2.1774°E)
Time: 09:19:03
(UTC+00:00)

ISS - Pass Details

Date: 14 May 2025
Orbit: 416 x 420 km, 51.6° (Epoch: 12 May)

Event Time Altitude Azimuth Distance (km) Brightness Sun altitude
Rises 22:37:17 0° 307° (NW) 2,361 0.9 -27.6°
Reaches altitude 10° 22:39:57 10° 329° (NNW) 1,496 0.0 -27.7°
Maximum altitude 22:42:12 17° 12° (NNE) 1,158 -0.9 -27.9°
Enters shadow 22:42:21 17° 15° (NNE) 1,160 -0.9 -27.9°
